Total_Precipitation_Accumulation
0.00 0.00 0.02 0.11 0.17 0.09 0.09 0.09 0.07 0.11 0.15 0.16 0.07 0.09 0.01 0.01 0.00 0.03 0.18 0.37 0.29 0.24 0.16 0.13 0.14 0.10 0.05 0.03 0.03 0.02 0.03 0.03 0.03 0.01 0.01 0.01 0.02 0.02 0.01 0.01 0.02 0.01 0.02
0.00 0.00 0.01 0.03 0.06 0.04 0.01 0.00 0.00 0.02 0.11 0.08 0.02 0.03 0.02 0.01 0.02 0.04 0.15 0.17 0.21 0.13 0.10 0.07 0.05 0.03 0.02 0.02 0.02 0.03 0.02 0.02 0.01 0.01 0.01 0.01 0.01 0.01 0.01 0.01 0.01 0.01 0.01
0.00 0.00 0.00 0.01 0.02 0.03 0.02 0.04 0.02 0.01 0.02 0.06 0.05 0.02 0.03 0.03 0.05 0.06 0.06 0.08 0.24 0.08 0.03 0.01 0.01 0.01 0.01 0.01 0.01 0.01 0.01 0.01 0.00 0.00 0.00 0.00 0.00 0.00 0.00 0.00 0.00 0.00 0.00
0.00 0.00 0.00 0.01 0.04 0.03 0.01 0.02 0.05 0.02 0.04 0.02 0.03 0.07 0.05 0.05 0.04 0.08 0.03 0.05 0.24 0.20 0.09 0.01 0.00 0.00 0.00 0.00 0.00 0.00 0.00 0.00 0.00 0.00 0.00 0.00 0.00 0.00 0.00 0.00 0.00 0.00 0.00
0.01 0.00 0.01 0.00 0.02 0.02 0.01 0.02 0.03 0.07 0.17 0.16 0.09 0.07 0.09 0.11 0.15 0.08 0.07 0.06 0.06 0.13 0.11 0.02 0.00 0.00 0.00 0.00 0.00 0.00 0.00 0.00 0.00 0.00 0.00 0.00 0.00 0.00 0.00 0.00 0.00 0.00 0.00
0.03 0.01 0.01 0.02 0.01 0.01 0.01 0.01 0.04 0.08 0.16 0.36 0.43 0.29 0.15 0.13 0.17 0.23 0.14 0.10 0.03 0.02 0.03 0.01 0.00 0.00 0.00 0.00 0.00 0.00 0.00 0.00 0.00 0.00 0.00 0.00 0.00 0.00 0.00 0.00 0.00 0.00 0.00
0.04 0.02 0.01 0.01 0.02 0.02 0.01 0.01 0.03 0.08 0.17 0.17 0.37 0.70 0.52 0.27 0.18 0.14 0.19 0.16 0.08 0.02 0.01 0.00 0.00 0.00 0.00 0.00 0.00 0.00 0.00 0.00 0.00 0.00 0.00 0.00 0.00 0.00 0.00 0.00 0.00 0.00 0.00
0.30 0.17 0.08 0.03 0.01 0.01 0.03 0.02 0.01 0.03 0.08 0.17 0.21 0.34 0.63 0.50 0.24 0.16 0.14 0.15 0.14 0.07 0.02 0.01 0.00 0.00 0.00 0.00 0.00 0.00 0.00 0.00 0.00 0.00 0.00 0.00 0.00 0.00 0.00 0.00 0.00 0.00 0.00
0.19 0.28 0.27 0.10 0.03 0.02 0.00 0.02 0.03 0.01 0.02 0.04 0.09 0.20 0.31 0.34 0.29 0.15 0.09 0.08 0.07 0.05 0.02 0.02 0.01 0.00 0.00 0.00 0.00 0.00 0.00 0.00 0.00 0.00 0.00 0.00 0.00 0.00 0.00 0.00 0.00 0.00 0.00
0.56 0.41 0.28 0.23 0.16 0.07 0.08 0.03 0.02 0.03 0.03 0.03 0.02 0.02 0.04 0.08 0.13 0.16 0.11 0.07 0.04 0.02 0.01 0.00 0.00 0.00 0.00 0.00 0.00 0.00 0.00 0.00 0.00 0.00 0.00 0.00 0.00 0.00 0.00 0.00 0.00 0.00 0.00
0.52 0.54 0.60 0.44 0.26 0.21 0.13 0.15 0.08 0.03 0.03 0.02 0.02 0.01 0.01 0.00 0.01 0.06 0.09 0.08 0.07 0.03 0.01 0.00 0.00 0.00 0.00 0.00 0.00 0.00 0.00 0.00 0.00 0.00 0.00 0.00 0.00 0.00 0.00 0.00 0.00 0.00 0.00
0.40 0.46 0.41 0.46 0.45 0.30 0.25 0.18 0.15 0.11 0.03 0.02 0.02 0.01 0.01 0.00 0.00 0.00 0.00 0.02 0.03 0.01 0.00 0.00 0.00 0.00 0.00 0.00 0.00 0.00 0.00 0.00 0.00 0.00 0.00 0.00 0.00 0.00 0.00 0.00 0.00 0.00 0.00
0.25 0.28 0.31 0.31 0.27 0.29 0.25 0.19 0.15 0.11 0.09 0.06 0.03 0.01 0.01 0.00 0.00 0.00 0.00 0.00 0.00 0.00 0.00 0.00 0.00 0.00 0.00 0.00 0.00 0.00 0.00 0.00 0.00 0.00 0.00 0.00 0.00 0.00 0.00 0.00 0.00 0.00 0.00
0.25 0.21 0.25 0.26 0.24 0.20 0.19 0.21 0.18 0.12 0.07 0.06 0.06 0.04 0.01 0.00 0.00 0.00 0.00 0.00 0.00 0.00 0.00 0.00 0.00 0.00 0.00 0.00 0.00 0.00 0.00 0.00 0.00 0.00 0.00 0.00 0.00 0.00 0.00 0.00 0.00 0.00 0.00
0.19 0.21 0.19 0.23 0.24 0.16 0.13 0.12 0.15 0.16 0.10 0.05 0.02 0.01 0.01 0.01 0.00 0.00 0.00 0.00 0.00 0.00 0.00 0.00 0.00 0.00 0.00 0.00 0.00 0.00 0.00 0.00 0.00 0.00 0.00 0.00 0.00 0.00 0.00 0.00 0.00 0.00 0.00
0.17 0.18 0.17 0.16 0.18 0.23 0.19 0.13 0.12 0.14 0.12 0.07 0.05 0.02 0.01 0.00 0.00 0.00 0.00 0.00 0.00 0.00 0.00 0.00 0.00 0.00 0.00 0.00 0.00 0.00 0.00 0.00 0.00 0.00 0.00 0.00 0.00 0.00 0.00 0.00 0.00 0.00 0.00
0.06 0.09 0.15 0.19 0.19 0.16 0.18 0.17 0.16 0.13 0.11 0.11 0.11 0.09 0.05 0.02 0.00 0.00 0.00 0.00 0.00 0.00 0.00 0.00 0.00 0.00 0.00 0.00 0.00 0.00 0.00 0.00 0.00 0.00 0.00 0.00 0.00 0.00 0.00 0.00 0.00 0.00 0.00
0.03 0.03 0.06 0.10 0.17 0.22 0.19 0.16 0.15 0.13 0.13 0.11 0.09 0.08 0.06 0.03 0.01 0.00 0.00 0.00 0.00 0.00 0.00 0.00 0.00 0.00 0.00 0.00 0.00 0.00 0.00 0.00 0.00 0.00 0.00 0.00 0.00 0.00 0.00 0.00 0.00 0.00 0.00
0.07 0.03 0.02 0.04 0.07 0.11 0.17 0.20 0.17 0.14 0.12 0.11 0.10 0.09 0.09 0.06 0.03 0.01 0.00 0.00 0.00 0.00 0.00 0.00 0.00 0.00 0.00 0.00 0.00 0.00 0.00 0.00 0.00 0.00 0.00 0.00 0.00 0.00 0.00 0.00 0.00 0.00 0.00
0.12 0.12 0.09 0.06 0.05 0.06 0.08 0.12 0.16 0.16 0.16 0.14 0.12 0.10 0.07 0.05 0.04 0.02 0.00 0.00 0.00 0.00 0.00 0.00 0.00 0.00 0.00 0.00 0.00 0.00 0.00 0.00 0.00 0.00 0.00 0.00 0.00 0.00 0.00 0.00 0.00 0.00 0.00
0.10 0.11 0.11 0.12 0.12 0.11 0.10 0.09 0.10 0.10 0.10 0.12 0.13 0.14 0.13 0.10 0.07 0.04 0.02 0.01 0.00 0.00 0.00 0.00 0.00 0.00 0.00 0.00 0.00 0.00 0.00 0.00 0.00 0.00 0.00 0.00 0.00 0.00 0.00 0.00 0.00 0.00 0.00
0.04 0.06 0.08 0.09 0.10 0.11 0.14 0.18 0.18 0.17 0.17 0.15 0.09 0.05 0.06 0.08 0.10 0.09 0.07 0.05 0.03 0.02 0.01 0.01 0.00 0.00 0.00 0.00 0.00 0.00 0.00 0.00 0.00 0.00 0.00 0.00 0.00 0.00 0.00 0.00 0.00 0.00 0.00
0.01 0.01 0.03 0.04 0.06 0.06 0.10 0.13 0.21 0.16 0.12 0.12 0.13 0.13 0.11 0.06 0.03 0.02 0.02 0.03 0.04 0.03 0.03 0.02 0.01 0.01 0.00 0.00 0.00 0.00 0.00 0.00 0.00 0.00 0.00 0.00 0.00 0.00 0.00 0.00 0.00 0.00 0.00
0.01 0.01 0.01 0.02 0.02 0.02 0.06 0.09 0.11 0.15 0.07 0.07 0.08 0.08 0.09 0.08 0.08 0.08 0.08 0.07 0.05 0.03 0.02 0.01 0.02 0.00 0.00 0.00 0.00 0.00 0.00 0.00 0.00 0.00 0.00 0.00 0.00 0.00 0.00 0.00 0.00 0.00 0.00
0.00 0.00 0.01 0.01 0.01 0.00 0.02 0.06 0.09 0.07 0.04 0.02 0.03 0.05 0.06 0.05 0.05 0.09 0.10 0.07 0.07 0.05 0.03 0.05 0.05 0.02 0.01 0.00 0.00 0.00 0.00 0.00 0.00 0.00 0.00 0.00 0.00 0.00 0.00 0.00 0.00 0.00 0.00
0.00 0.00 0.00 0.00 0.00 0.01 0.01 0.02 0.08 0.10 0.06 0.03 0.01 0.00 0.02 0.05 0.02 0.04 0.12 0.06 0.06 0.02 0.02 0.01 0.02 0.02 0.02 0.01 0.01 0.01 0.02 0.00 0.00 0.00 0.00 0.00 0.00 0.00 0.00 0.00 0.00 0.00 0.00